FW9915 Weather Reports


Display with metric or nautical units.
time (UTC)temp
F
wind
direction
speed
MPH
gust
MPH
rain 1hr
in
rain 24hr
in
rain mn
in
humidity
%
barometer
mb
20260510211024 53 0.0 0.0 0.00 0.00 0.00 97 1014.7
20260510210024 53 0.0 0.0 0.00 0.00 0.00 97 1014.6
20260510205023 54 0.0 0.0 0.00 0.00 0.00 96 1014.5
20260510204024 55 0.0 0.0 0.00 0.00 0.00 95 1014.5
20260510203023 55 0.0 0.0 0.00 0.00 0.00 94 1014.4
20260510202044 56 0.0 0.0 0.00 0.02 0.00 92 1014.4
20260510201044 58 0.0 0.0 0.00 0.02 0.00 94 1014.4
20260510200023 56 0.0 0.0 0.00 0.02 0.00 95 1014.4
20260510195024 57 0.0 0.0 0.00 0.02 0.00 93 1014.5
20260510194204 58 0.0 0.0 0.00 0.02 0.00 92 1014.6
20260510193036 58 180 0.0 2.0 0.00 0.02 0.00 92 1014.6
20260510192044 59 203 0.0 2.0 0.00 0.02 0.00 91 1014.5
20260510191036 59 213 0.0 4.0 0.00 0.02 0.00 90 1014.5
20260510190036 58 0.0 0.0 0.00 0.02 0.00 89 1014.6
20260510185024 59 0.0 0.0 0.00 0.02 0.00 88 1014.4
20260510184024 59 0.0 0.0 0.00 0.02 0.00 89 1014.3
20260510183025 58 225 1.0 2.0 0.00 0.02 0.00 91 1014.2
20260510182044 57 0.0 0.0 0.00 0.02 0.00 90 1014.2
20260510181044 58 0.0 0.0 0.00 0.02 0.00 89 1014.1
20260510180048 59 0.0 0.0 0.00 0.02 0.00 88 1013.9
20260510175036 59 0.0 0.0 0.00 0.02 0.00 86 1013.7
20260510174023 60 0.0 0.0 0.00 0.02 0.00 86 1013.7
20260510173024 60 0.0 0.0 0.00 0.02 0.00 84 1013.7
20260510172024 61 0.0 0.0 0.00 0.02 0.00 83 1013.6
20260510171024 60 0.0 0.0 0.00 0.02 0.00 85 1013.5
20260510170044 61 0.0 0.0 0.00 0.02 0.00 85 1013.4
20260510165024 62 0.0 0.0 0.00 0.02 0.00 84 1013.4
20260510164044 62 0.0 0.0 0.00 0.02 0.00 83 1013.5
20260510163024 63 225 1.0 2.0 0.00 0.02 0.00 83 1013.5
20260510162024 63 225 0.0 2.0 0.00 0.02 0.00 83 1013.5
20260510161044 64 225 0.0 2.0 0.00 0.02 0.00 83 1013.5
20260510160036 64 221 2.0 4.0 0.00 0.02 0.00 81 1013.6
20260510155023 64 180 2.0 4.0 0.00 0.02 0.00 81 1013.6
20260510154024 66 293 1.0 4.0 0.00 0.02 0.00 72 1013.5
20260510153024 66 322 2.0 4.0 0.00 0.02 0.00 73 1013.6
20260510152024 66 320 3.0 7.0 0.00 0.02 0.00 74 1013.5
20260510151024 66 354 5.0 7.0 0.00 0.02 0.00 76 1013.5
20260510150024 66 320 4.0 9.0 0.00 0.02 0.00 76 1013.5
20260510145035 67 322 4.0 9.0 0.00 0.02 0.00 75 1013.6
20260510144036 67 336 4.0 9.0 0.00 0.02 0.00 73 1013.7
20260510143036 68 332 5.0 9.0 0.00 0.02 0.00 72 1013.7
20260510142024 66 312 5.0 9.0 0.00 0.02 0.00 74 1013.8
20260510141036 65 320 6.0 9.0 0.00 0.02 0.00 75 1013.9
20260510140104 66 317 4.0 9.0 0.00 0.02 0.00 74 1014.0
20260510135024 67 323 6.0 9.0 0.00 0.02 0.00 73 1014.1
20260510134036 66 315 4.0 7.0 0.00 0.02 0.00 75 1014.2
20260510133024 65 303 3.0 9.0 0.00 0.02 0.00 76 1014.2
20260510132024 66 312 5.0 11.0 0.00 0.02 0.00 75 1014.4
20260510131024 66 316 5.0 9.0 0.00 0.02 0.00 75 1014.4
20260510130024 66 304 2.0 9.0 0.00 0.02 0.00 76 1014.5
20260510125044 65 305 4.0 7.0 0.00 0.02 0.00 76 1014.6
20260510124024 66 313 3.0 7.0 0.00 0.02 0.00 76 1014.6
20260510123024 66 318 4.0 9.0 0.00 0.02 0.00 75 1014.6
20260510122024 66 318 6.0 11.0 0.00 0.02 0.00 74 1014.5
20260510121104 66 322 6.0 11.0 0.00 0.02 0.00 75 1014.4
20260510120024 66 341 7.0 11.0 0.00 0.02 0.00 76 1014.4
20260510115104 67 306 5.0 9.0 0.00 0.02 0.00 72 1014.4
20260510114024 67 315 5.0 11.0 0.00 0.02 0.00 73 1014.3
20260510113044 66 325 7.0 15.0 0.00 0.02 0.00 74 1014.3
20260510112024 66 315 6.0 15.0 0.00 0.02 0.00 75 1014.3
20260510111024 66 308 4.0 9.0 0.00 0.02 0.00 75 1014.4
20260510110036 66 329 6.0 15.0 0.00 0.02 0.00 75 1014.4
20260510105024 67 347 7.0 11.0 0.00 0.02 0.00 75 1014.3
20260510104024 66 318 6.0 9.0 0.00 0.02 0.00 76 1014.4
20260510103044 65 335 7.0 15.0 0.00 0.02 0.00 78 1014.6
20260510102024 64 305 4.0 9.0 0.00 0.02 0.00 78 1014.6
20260510101024 64 323 5.0 11.0 0.00 0.02 0.00 79 1014.6
20260510100044 64 326 7.0 15.0 0.00 0.02 0.00 81 1014.7
20260510095024 65 320 5.0 15.0 0.00 0.02 0.00 78 1014.6
20260510094024 64 314 5.0 11.0 0.00 0.02 0.00 80 1014.5
20260510093024 64 336 5.0 9.0 0.00 0.02 0.00 81 1014.5
20260510092024 63 320 5.0 11.0 0.00 0.02 0.00 81 1014.5
20260510091024 63 327 5.0 9.0 0.00 0.02 0.00 84 1014.5
20260510090024 63 312 4.0 9.0 0.00 0.02 0.00 82 1014.5
20260510085024 63 321 5.0 9.0 0.00 0.02 0.00 83 1014.5
20260510084024 63 316 5.0 9.0 0.00 0.02 0.00 82 1014.5
20260510083024 64 313 5.0 9.0 0.00 0.02 0.00 82 1014.5
20260510082024 64 320 5.0 11.0 0.00 0.02 0.00 83 1014.5
20260510081024 63 306 5.0 9.0 0.00 0.02 0.00 84 1014.3
20260510080044 62 318 4.0 9.0 0.00 0.02 0.00 86 1014.3
20260510075024 62 331 5.0 11.0 0.00 0.02 0.00 86 1014.2
20260510074024 62 310 5.0 9.0 0.00 0.02 0.00 87 1014.2
20260510073024 62 321 6.0 9.0 0.00 0.02 0.00 88 1014.2
20260510072024 61 314 5.0 11.0 0.00 0.02 0.00 90 1014.2
20260510071024 61 308 6.0 9.0 0.00 0.02 0.00 91 1014.1
20260510070024 60 318 5.0 9.0 0.00 0.02 0.00 92 1014.1
20260510065024 60 316 2.0 7.0 0.00 0.02 0.00 93 1014.1
20260510064036 60 320 4.0 9.0 0.00 0.02 0.00 92 1014.2
20260510063048 60 305 2.0 7.0 0.00 0.02 0.00 91 1014.2
20260510062024 60 294 2.0 7.0 0.00 0.02 0.00 92 1014.2
20260510061024 60 294 2.0 4.0 0.00 0.02 0.00 93 1014.2
20260510060036 59 293 1.0 2.0 0.00 0.02 0.00 95 1014.1
20260510055036 59 296 1.0 4.0 0.00 0.02 0.00 96 1014.0
20260510054024 58 323 4.0 7.0 0.00 0.02 0.00 97 1014.0
20260510053024 58 322 4.0 7.0 0.00 0.02 0.00 98 1013.9
20260510052024 58 341 4.0 7.0 0.00 0.02 0.00 98 1013.9
20260510051024 58 323 3.0 7.0 0.00 0.02 0.00 99 1014.0
20260510050024 58 306 2.0 4.0 0.00 0.02 0.00 98 1014.1
20260510045024 58 319 3.0 7.0 0.00 0.02 0.00 98 1014.1
20260510044024 57 324 5.0 9.0 0.00 0.02 0.00 98 1014.1
20260510043024 57 326 4.0 7.0 0.00 0.02 0.00 99 1013.9
20260510042044 57 307 3.0 7.0 0.00 0.02 0.00 99 1013.9
20260510041024 57 312 3.0 7.0 0.00 0.02 0.00 99 1013.9
20260510040024 57 318 2.0 4.0 0.00 0.02 0.00 99 1013.8
20260510035024 57 304 2.0 7.0 0.00 0.02 0.00 99 1013.6
20260510034036 57 320 2.0 4.0 0.00 0.02 0.00 99 1013.5
20260510033128 57 300 2.0 4.0 0.00 0.02 0.00 99 1013.4
20260510032024 57 295 2.0 7.0 0.00 0.02 0.00 99 1013.4
20260510031024 57 291 3.0 9.0 0.00 0.02 0.00 99 1013.3
20260510030044 57 290 0.0 2.0 0.00 0.02 0.00 99 1013.2
20260510025056 56 0.0 0.0 0.00 0.02 0.00 99 1013.1
20260510024024 56 248 0.0 1.0 0.00 0.02 0.00 99 1013.0
20260510023024 57 0.0 0.0 0.00 0.02 0.00 99 1013.0
20260510022024 57 0.0 0.0 0.00 0.02 0.00 99 1013.0
20260510021044 56 0.0 0.0 0.00 0.02 0.00 99 1013.1
20260510020036 56 0.0 0.0 0.00 0.02 0.00 99 1013.1
20260510015024 56 0.0 0.0 0.00 0.02 0.00 99 1013.1
20260510014104 56 0.0 0.0 0.00 0.02 0.00 99 1013.2
20260510013024 56 0.0 0.0 0.00 0.02 0.00 99 1013.1
20260510012024 56 0.0 0.0 0.00 0.02 0.00 99 1013.1
20260510011036 56 0.0 0.0 0.00 0.02 0.00 99 1013.2
20260510010056 56 0.0 0.0 0.00 0.02 0.00 99 1013.3
20260510005024 55 0.0 0.0 0.00 0.02 0.00 99 1013.2
20260510004036 56 0.0 0.0 0.00 0.02 0.00 99 1013.3
20260510003024 56 0.0 0.0 0.00 0.02 0.00 99 1013.4
20260510002036 56 0.0 0.0 0.00 0.02 0.00 99 1013.5
20260510001048 56 0.0 0.0 0.00 0.02 0.00 99 1013.4
20260510000024 56 0.0 0.0 0.00 0.02 0.00 99 1013.4
20260509235024 56 0.0 0.0 0.00 0.02 0.00 99 1013.5
20260509234044 56 0.0 0.0 0.00 0.02 0.00 99 1013.5
20260509233036 56 0.0 0.0 0.00 0.02 0.00 99 1013.6
20260509232024 56 0.0 0.0 0.00 0.02 0.00 99 1013.6
20260509231048 56 0.0 0.0 0.00 0.02 0.00 99 1013.7
20260509230036 56 0.0 0.0 0.00 0.02 0.00 99 1013.8
20260509225024 56 0.0 0.0 0.00 0.02 0.00 99 1013.9
20260509224024 56 0.0 0.0 0.00 0.02 0.00 99 1013.9
20260509223024 56 0.0 0.0 0.00 0.02 0.00 99 1014.0
20260509222024 56 0.0 0.0 0.00 0.02 0.00 99 1014.0
20260509221024 56 0.0 0.0 0.00 0.02 0.00 99 1014.1
20260509220024 56 0.0 0.0 0.00 0.02 0.00 99 1014.1
20260509215024 56 0.0 0.0 0.00 0.02 0.00 98 1014.1
20260509214036 56 0.0 0.0 0.00 0.02 0.00 98 1014.1
20260509213024 56 0.0 0.0 0.00 0.02 0.00 98 1014.2
20260509212024 56 0.0 0.0 0.02 0.02 0.00 98 1014.3